Time,TemperatureF,DewpointF,PressureIn,WindDirection,WindDirectionDegrees,WindSpeedMPH,WindSpeedGustMPH,Humidity,HourlyPrecipIn,Conditions,Clouds,dailyrainin,SolarRadiationWatts/m^2,SoftwareType,DateUTC
2013-05-06 00:02:00,61.9,18.0,29.63,NE,41,5.0,16.0,18,0.00,,,0.00,0.0,meteohub,2013-05-06 06:02:00,
2013-05-06 00:07:00,62.1,20.5,29.63,ENE,57,9.0,16.0,20,0.00,,,0.00,0.0,meteohub,2013-05-06 06:07:00,
2013-05-06 00:12:00,62.1,18.0,29.63,NNE,23,6.0,16.0,18,0.00,,,0.00,0.0,meteohub,2013-05-06 06:12:00,
2013-05-06 00:17:00,62.1,20.5,29.63,NE,49,2.0,14.0,20,0.00,,,0.00,0.0,meteohub,2013-05-06 06:17:00,
2013-05-06 00:27:00,61.9,19.2,29.63,NE,39,2.0,11.0,19,0.00,,,0.00,0.0,meteohub,2013-05-06 06:27:00,
2013-05-06 00:37:00,62.1,16.7,29.64,ENE,76,9.0,11.0,17,0.00,,,0.00,0.0,meteohub,2013-05-06 06:37:00,
2013-05-06 00:42:00,62.1,16.7,29.63,East,101,5.0,10.0,17,0.00,,,0.00,0.0,meteohub,2013-05-06 06:42:00,
2013-05-06 00:47:00,61.7,16.3,29.63,ESE,115,0.0,10.0,17,0.00,,,0.00,0.0,meteohub,2013-05-06 06:47:00,
2013-05-06 00:52:00,61.2,17.2,29.62,ESE,113,1.0,10.0,18,0.00,,,0.00,0.0,meteohub,2013-05-06 06:52:00,
2013-05-06 00:57:00,60.8,17.1,29.62,ESE,113,1.0,9.0,18,0.00,,,0.00,0.0,meteohub,2013-05-06 06:57:00,
2013-05-06 01:02:00,60.6,16.9,29.62,East,88,0.0,4.0,18,0.00,,,0.00,0.0,meteohub,2013-05-06 07:02:00,
2013-05-06 01:07:00,60.4,16.7,29.62,East,88,0.0,5.0,18,0.00,,,0.00,0.0,meteohub,2013-05-06 07:07:00,
2013-05-06 01:12:00,60.4,16.7,29.61,WSW,255,4.0,5.0,18,0.00,,,0.00,0.0,meteohub,2013-05-06 07:12:00,
2013-05-06 01:17:00,61.0,17.2,29.61,WSW,247,0.0,7.0,18,0.00,,,0.00,0.0,meteohub,2013-05-06 07:17:00,
2013-05-06 01:22:00,61.2,17.2,29.61,South,177,0.0,7.0,18,0.00,,,0.00,0.0,meteohub,2013-05-06 07:22:00,
2013-05-06 01:27:00,60.8,17.1,29.61,SE,144,2.0,7.0,18,0.00,,,0.00,0.0,meteohub,2013-05-06 07:27:00,
2013-05-06 01:32:00,60.6,16.9,29.60,SE,125,3.0,5.0,18,0.00,,,0.00,0.0,meteohub,2013-05-06 07:32:00,
2013-05-06 01:37:00,60.8,17.1,29.60,East,90,2.0,7.0,18,0.00,,,0.00,0.0,meteohub,2013-05-06 07:37:00,
2013-05-06 01:47:00,60.6,16.9,29.59,SSE,155,4.0,13.0,18,0.00,,,0.00,0.0,meteohub,2013-05-06 07:47:00,
2013-05-06 01:52:00,60.6,16.9,29.60,ESE,112,1.0,13.0,18,0.00,,,0.00,0.0,meteohub,2013-05-06 07:52:00,
2013-05-06 01:57:00,60.4,16.7,29.60,SW,222,5.0,13.0,18,0.00,,,0.00,0.0,meteohub,2013-05-06 07:57:00,
2013-05-06 02:02:00,59.7,17.4,29.60,SW,229,2.0,13.0,19,0.00,,,0.00,0.0,meteohub,2013-05-06 08:02:00,
2013-05-06 02:07:00,58.6,17.6,29.60,WSW,246,2.0,7.0,20,0.00,,,0.00,0.0,meteohub,2013-05-06 08:07:00,
2013-05-06 02:12:00,57.9,17.1,29.60,WSW,246,3.0,7.0,20,0.00,,,0.00,0.0,meteohub,2013-05-06 08:12:00,
2013-05-06 02:17:00,57.6,18.0,29.60,WSW,246,0.0,5.0,21,0.00,,,0.00,0.0,meteohub,2013-05-06 08:17:00,
2013-05-06 02:22:00,57.4,17.8,29.60,WSW,246,0.0,4.0,21,0.00,,,0.00,0.0,meteohub,2013-05-06 08:22:00,
2013-05-06 02:27:00,57.0,17.4,29.59,WSW,246,0.0,3.0,21,0.00,,,0.00,0.0,meteohub,2013-05-06 08:27:00,
2013-05-06 02:32:00,56.8,17.2,29.59,WSW,249,2.0,3.0,21,0.00,,,0.00,0.0,meteohub,2013-05-06 08:32:00,
2013-05-06 02:37:00,56.7,17.2,29.59,SSE,151,0.0,4.0,21,0.00,,,0.00,0.0,meteohub,2013-05-06 08:37:00,
2013-05-06 02:42:00,56.5,17.1,29.59,SSE,153,1.0,4.0,21,0.00,,,0.00,0.0,meteohub,2013-05-06 08:42:00,
2013-05-06 02:47:00,56.8,17.2,29.58,SSE,152,0.0,4.0,21,0.00,,,0.00,0.0,meteohub,2013-05-06 08:47:00,
2013-05-06 02:52:00,56.7,18.3,29.59,SSE,154,0.0,3.0,22,0.00,,,0.00,0.0,meteohub,2013-05-06 08:52:00,
2013-05-06 02:57:00,55.9,17.6,29.59,SSE,157,0.0,3.0,22,0.00,,,0.00,0.0,meteohub,2013-05-06 08:57:00,
2013-05-06 03:02:00,55.8,18.5,29.59,SSE,157,1.0,3.0,23,0.00,,,0.00,0.0,meteohub,2013-05-06 09:02:00,
2013-05-06 03:07:00,55.9,18.7,29.59,SSE,158,2.0,3.0,23,0.00,,,0.00,0.0,meteohub,2013-05-06 09:07:00,
2013-05-06 03:12:00,55.9,18.7,29.60,South,175,2.0,4.0,23,0.00,,,0.00,0.0,meteohub,2013-05-06 09:12:00,
2013-05-06 03:22:00,55.8,18.5,29.60,West,281,3.0,4.0,23,0.00,,,0.00,0.0,meteohub,2013-05-06 09:22:00,
2013-05-06 03:27:00,55.6,18.3,29.60,WNW,288,1.0,4.0,23,0.00,,,0.00,0.0,meteohub,2013-05-06 09:27:00,
2013-05-06 03:32:00,55.6,18.3,29.60,NNW,328,1.0,4.0,23,0.00,,,0.00,0.0,meteohub,2013-05-06 09:32:00,
2013-05-06 03:37:00,55.4,18.1,29.60,NNW,328,0.0,4.0,23,0.00,,,0.00,0.0,meteohub,2013-05-06 09:37:00,
2013-05-06 03:42:00,55.4,18.1,29.60,NNW,328,0.0,4.0,23,0.00,,,0.00,0.0,meteohub,2013-05-06 09:42:00,
2013-05-06 03:47:00,55.2,18.1,29.60,NNW,328,2.0,4.0,23,0.00,,,0.00,0.0,meteohub,2013-05-06 09:47:00,
2013-05-06 03:52:00,55.2,18.1,29.60,NNW,330,0.0,3.0,23,0.00,,,0.00,0.0,meteohub,2013-05-06 09:52:00,
2013-05-06 03:57:00,55.2,19.0,29.60,NNW,330,0.0,3.0,24,0.00,,,0.00,0.0,meteohub,2013-05-06 09:57:00,
2013-05-06 04:02:00,55.4,18.1,29.60,NNW,330,0.0,3.0,23,0.00,,,0.00,0.0,meteohub,2013-05-06 10:02:00,
2013-05-06 04:07:00,55.2,19.0,29.60,NNW,330,0.0,2.0,24,0.00,,,0.00,0.0,meteohub,2013-05-06 10:07:00,
2013-05-06 04:12:00,55.4,18.1,29.60,NNW,330,0.0,2.0,23,0.00,,,0.00,0.0,meteohub,2013-05-06 10:12:00,
2013-05-06 04:17:00,55.6,19.4,29.60,NNW,330,0.0,1.0,24,0.00,,,0.00,0.0,meteohub,2013-05-06 10:17:00,
2013-05-06 04:22:00,55.6,18.3,29.60,NNW,330,0.0,1.0,23,0.00,,,0.00,0.0,meteohub,2013-05-06 10:22:00,
2013-05-06 04:27:00,55.6,18.3,29.59,NNW,330,0.0,1.0,23,0.00,,,0.00,0.0,meteohub,2013-05-06 10:27:00,
2013-05-06 04:32:00,55.6,18.3,29.59,NNW,330,0.0,2.0,23,0.00,,,0.00,0.0,meteohub,2013-05-06 10:32:00,
2013-05-06 04:37:00,55.6,18.3,29.59,NNW,330,0.0,2.0,23,0.00,,,0.00,0.0,meteohub,2013-05-06 10:37:00,
2013-05-06 04:42:00,55.6,18.3,29.59,NNW,330,0.0,3.0,23,0.00,,,0.00,0.0,meteohub,2013-05-06 10:42:00,
2013-05-06 04:47:00,55.6,18.3,29.58,NNW,330,1.0,3.0,23,0.00,,,0.00,0.0,meteohub,2013-05-06 10:47:00,
2013-05-06 04:52:00,55.8,18.5,29.58,North,0,3.0,3.0,23,0.00,,,0.00,0.0,meteohub,2013-05-06 10:52:00,
2013-05-06 04:57:00,55.9,18.7,29.58,North,0,0.0,3.0,23,0.00,,,0.00,0.0,meteohub,2013-05-06 10:57:00,
2013-05-06 05:02:00,55.9,18.7,29.58,NNW,348,1.0,3.0,23,0.00,,,0.00,0.0,meteohub,2013-05-06 11:02:00,
2013-05-06 05:07:00,55.8,18.5,29.58,North,349,2.0,3.0,23,0.00,,,0.00,0.0,meteohub,2013-05-06 11:07:00,
2013-05-06 05:12:00,55.8,18.5,29.58,North,5,0.0,3.0,23,0.00,,,0.00,0.0,meteohub,2013-05-06 11:12:00,
2013-05-06 05:17:00,55.8,18.5,29.58,North,11,3.0,5.0,23,0.00,,,0.00,0.0,meteohub,2013-05-06 11:17:00,
2013-05-06 05:22:00,55.8,18.5,29.58,NNE,16,0.0,5.0,23,0.00,,,0.00,0.0,meteohub,2013-05-06 11:22:00,
2013-05-06 05:27:00,55.8,18.5,29.58,NNE,16,0.0,5.0,23,0.00,,,0.00,0.0,meteohub,2013-05-06 11:27:00,
2013-05-06 05:32:00,55.9,18.7,29.57,NNE,16,2.0,4.0,23,0.00,,,0.00,0.0,meteohub,2013-05-06 11:32:00,
2013-05-06 05:37:00,56.1,18.9,29.57,NNE,16,0.0,2.0,23,0.00,,,0.00,0.0,meteohub,2013-05-06 11:37:00,
2013-05-06 05:42:00,56.1,18.9,29.58,NNE,16,0.0,2.0,23,0.00,,,0.00,0.0,meteohub,2013-05-06 11:42:00,
2013-05-06 05:47:00,56.1,18.9,29.57,NNE,18,1.0,2.0,23,0.00,,,0.00,0.0,meteohub,2013-05-06 11:47:00,
2013-05-06 05:52:00,56.5,19.0,29.57,NNE,18,1.0,3.0,23,0.00,,,0.00,0.0,meteohub,2013-05-06 11:52:00,
2013-05-06 05:57:00,56.5,19.0,29.57,NNE,23,0.0,3.0,23,0.00,,,0.00,0.0,meteohub,2013-05-06 11:57:00,
2013-05-06 06:02:00,56.5,19.0,29.57,NNE,23,0.0,4.0,23,0.00,,,0.00,0.0,meteohub,2013-05-06 12:02:00,
2013-05-06 06:07:00,56.1,18.9,29.57,NNE,32,4.0,4.0,23,0.00,,,0.00,0.0,meteohub,2013-05-06 12:07:00,
2013-05-06 06:12:00,56.5,19.0,29.57,NE,48,0.0,5.0,23,0.00,,,0.00,0.0,meteohub,2013-05-06 12:12:00,
2013-05-06 06:17:00,56.1,19.8,29.57,NE,44,2.0,5.0,24,0.00,,,0.00,0.0,meteohub,2013-05-06 12:17:00,
2013-05-06 06:22:00,55.8,19.6,29.57,NE,44,0.0,5.0,24,0.00,,,0.00,5.0,meteohub,2013-05-06 12:22:00,
2013-05-06 06:27:00,55.6,19.4,29.57,NE,46,0.0,3.0,24,0.00,,,0.00,9.0,meteohub,2013-05-06 12:27:00,
2013-05-06 06:32:00,55.6,20.3,29.57,NE,46,0.0,3.0,25,0.00,,,0.00,12.0,meteohub,2013-05-06 12:32:00,
2013-05-06 06:37:00,55.4,20.1,29.57,NE,46,0.0,2.0,25,0.00,,,0.00,14.0,meteohub,2013-05-06 12:37:00,
2013-05-06 06:42:00,55.6,20.3,29.57,NE,46,0.0,2.0,25,0.00,,,0.00,16.0,meteohub,2013-05-06 12:42:00,
2013-05-06 06:47:00,55.2,21.7,29.57,NE,34,2.0,2.0,27,0.00,,,0.00,23.0,meteohub,2013-05-06 12:47:00,
2013-05-06 06:52:00,54.9,21.6,29.57,NW,324,0.0,3.0,27,0.00,,,0.00,33.0,meteohub,2013-05-06 12:52:00,
2013-05-06 06:57:00,54.7,21.4,29.58,NW,324,1.0,3.0,27,0.00,,,0.00,35.0,meteohub,2013-05-06 12:57:00,
2013-05-06 07:02:00,54.7,21.4,29.57,ENE,58,2.0,3.0,27,0.00,,,0.00,46.0,meteohub,2013-05-06 13:02:00,
2013-05-06 07:07:00,55.0,21.7,29.57,NE,53,0.0,5.0,27,0.00,,,0.00,60.0,meteohub,2013-05-06 13:07:00,
2013-05-06 07:12:00,56.5,22.8,29.57,East,88,0.0,5.0,27,0.00,,,0.00,72.0,meteohub,2013-05-06 13:12:00,
2013-05-06 07:17:00,56.8,22.3,29.57,WSW,248,6.0,6.0,26,0.00,,,0.00,63.0,meteohub,2013-05-06 13:17:00,
2013-05-06 07:22:00,56.1,20.8,29.58,West,259,6.0,7.0,25,0.00,,,0.00,67.0,meteohub,2013-05-06 13:22:00,
2013-05-06 07:27:00,55.6,19.4,29.58,West,262,6.0,10.0,24,0.00,,,0.00,77.0,meteohub,2013-05-06 13:27:00,
2013-05-06 07:32:00,55.2,19.9,29.58,WSW,252,4.0,10.0,25,0.00,,,0.00,76.0,meteohub,2013-05-06 13:32:00,
2013-05-06 07:37:00,55.0,19.8,29.59,WSW,248,2.0,10.0,25,0.00,,,0.00,74.0,meteohub,2013-05-06 13:37:00,
2013-05-06 07:42:00,54.9,19.8,29.59,WSW,248,2.0,7.0,25,0.00,,,0.00,81.0,meteohub,2013-05-06 13:42:00,
2013-05-06 07:47:00,55.0,20.8,29.59,West,275,3.0,7.0,26,0.00,,,0.00,100.0,meteohub,2013-05-06 13:47:00,
2013-05-06 07:52:00,55.2,20.8,29.60,West,275,0.0,6.0,26,0.00,,,0.00,105.0,meteohub,2013-05-06 13:52:00,
2013-05-06 07:57:00,55.4,21.0,29.60,West,277,6.0,6.0,26,0.00,,,0.00,114.0,meteohub,2013-05-06 13:57:00,
2013-05-06 08:02:00,55.8,21.4,29.60,West,275,3.0,6.0,26,0.00,,,0.00,118.0,meteohub,2013-05-06 14:02:00,
2013-05-06 08:07:00,55.8,21.4,29.60,West,274,0.0,6.0,26,0.00,,,0.00,125.0,meteohub,2013-05-06 14:07:00,
2013-05-06 08:12:00,56.1,21.7,29.60,West,274,0.0,6.0,26,0.00,,,0.00,109.0,meteohub,2013-05-06 14:12:00,
2013-05-06 08:17:00,56.1,21.7,29.60,West,274,3.0,5.0,26,0.00,,,0.00,125.0,meteohub,2013-05-06 14:17:00,
2013-05-06 08:22:00,56.7,21.2,29.60,NW,307,5.0,5.0,25,0.00,,,0.00,128.0,meteohub,2013-05-06 14:22:00,
2013-05-06 08:27:00,56.8,21.4,29.61,NW,309,2.0,7.0,25,0.00,,,0.00,104.0,meteohub,2013-05-06 14:27:00,
2013-05-06 08:32:00,56.8,21.4,29.61,NW,309,3.0,7.0,25,0.00,,,0.00,120.0,meteohub,2013-05-06 14:32:00,
2013-05-06 08:37:00,57.0,21.6,29.61,WNW,295,1.0,6.0,25,0.00,,,0.00,172.0,meteohub,2013-05-06 14:37:00,
2013-05-06 08:42:00,57.6,21.9,29.61,WNW,287,2.0,6.0,25,0.00,,,0.00,167.0,meteohub,2013-05-06 14:42:00,
2013-05-06 08:47:00,57.7,21.2,29.61,WNW,286,2.0,6.0,24,0.00,,,0.00,167.0,meteohub,2013-05-06 14:47:00,
2013-05-06 08:52:00,58.1,21.6,29.61,WNW,286,1.0,5.0,24,0.00,,,0.00,241.0,meteohub,2013-05-06 14:52:00,
2013-05-06 08:57:00,58.3,21.6,29.61,WNW,288,1.0,5.0,24,0.00,,,0.00,244.0,meteohub,2013-05-06 14:57:00,
2013-05-06 09:02:00,59.2,22.5,29.61,WNW,290,1.0,4.0,24,0.00,,,0.00,364.0,meteohub,2013-05-06 15:02:00,
2013-05-06 09:07:00,59.5,22.6,29.62,West,280,1.0,4.0,24,0.00,,,0.00,202.0,meteohub,2013-05-06 15:07:00,
2013-05-06 09:12:00,60.4,25.3,29.62,SE,136,6.0,8.0,26,0.00,,,0.00,200.0,meteohub,2013-05-06 15:12:00,
2013-05-06 09:17:00,61.0,25.0,29.62,SSE,165,6.0,10.0,25,0.00,,,0.00,218.0,meteohub,2013-05-06 15:17:00,
2013-05-06 09:22:00,61.2,25.0,29.61,SSE,168,4.0,10.0,25,0.00,,,0.00,276.0,meteohub,2013-05-06 15:22:00,
2013-05-06 09:27:00,61.0,23.9,29.61,SSE,161,4.0,10.0,24,0.00,,,0.00,225.0,meteohub,2013-05-06 15:27:00,
2013-05-06 09:32:00,61.0,23.9,29.61,SSW,206,7.0,14.0,24,0.00,,,0.00,250.0,meteohub,2013-05-06 15:32:00,
2013-05-06 09:37:00,61.2,23.0,29.61,SE,142,7.0,14.0,23,0.00,,,0.00,295.0,meteohub,2013-05-06 15:37:00,
2013-05-06 09:42:00,61.3,24.3,29.61,SSW,199,5.0,14.0,24,0.00,,,0.00,397.0,meteohub,2013-05-06 15:42:00,
2013-05-06 09:47:00,61.3,24.3,29.61,SSW,197,5.0,13.0,24,0.00,,,0.00,276.0,meteohub,2013-05-06 15:47:00,
2013-05-06 09:52:00,61.2,24.1,29.62,South,191,10.0,15.0,24,0.00,,,0.00,320.0,meteohub,2013-05-06 15:52:00,
2013-05-06 09:57:00,61.2,27.9,29.61,South,185,4.0,20.0,28,0.00,,,0.00,294.0,meteohub,2013-05-06 15:57:00,
2013-05-06 10:02:00,60.6,29.8,29.61,SSE,166,6.0,20.0,31,0.00,,,0.00,373.0,meteohub,2013-05-06 16:02:00,
2013-05-06 10:07:00,61.0,26.8,29.61,SSW,201,7.0,22.0,27,0.00,,,0.00,288.0,meteohub,2013-05-06 16:07:00,
2013-05-06 10:12:00,61.2,26.1,29.62,SSW,194,10.0,22.0,26,0.00,,,0.00,346.0,meteohub,2013-05-06 16:12:00,
2013-05-06 10:17:00,61.2,24.1,29.62,South,186,13.0,20.0,24,0.00,,,0.00,359.0,meteohub,2013-05-06 16:17:00,
2013-05-06 10:22:00,60.3,33.3,29.63,SW,236,9.0,26.0,36,0.00,,,0.00,397.0,meteohub,2013-05-06 16:22:00,
2013-05-06 10:27:00,59.4,34.3,29.63,SW,225,9.0,26.0,39,0.00,,,0.00,237.0,meteohub,2013-05-06 16:27:00,
2013-05-06 10:32:00,58.3,35.2,29.64,SW,229,13.0,26.0,42,0.00,,,0.00,148.0,meteohub,2013-05-06 16:32:00,
2013-05-06 10:37:00,57.4,35.6,29.64,SSW,202,13.0,26.0,44,0.00,,,0.00,139.0,meteohub,2013-05-06 16:37:00,
2013-05-06 10:42:00,57.0,36.0,29.64,SSW,194,7.0,26.0,45,0.00,,,0.00,234.0,meteohub,2013-05-06 16:42:00,
2013-05-06 10:47:00,57.4,36.1,29.64,SSW,208,9.0,26.0,45,0.00,,,0.00,485.0,meteohub,2013-05-06 16:47:00,
2013-05-06 10:52:00,57.7,36.5,29.64,West,261,13.0,19.0,45,0.00,,,0.00,594.0,meteohub,2013-05-06 16:52:00,
2013-05-06 10:57:00,58.3,37.0,29.64,West,261,9.0,19.0,45,0.00,,,0.00,543.0,meteohub,2013-05-06 16:57:00,
2013-05-06 11:02:00,58.6,36.9,29.63,South,183,5.0,17.0,44,0.00,,,0.00,1041.0,meteohub,2013-05-06 17:02:00,
2013-05-06 11:07:00,59.0,37.8,29.63,SW,232,6.0,15.0,45,0.00,,,0.00,1000.0,meteohub,2013-05-06 17:07:00,
2013-05-06 11:12:00,59.7,37.2,29.63,SSW,209,5.0,14.0,43,0.00,,,0.00,756.0,meteohub,2013-05-06 17:12:00,
2013-05-06 11:17:00,60.1,36.9,29.63,SW,225,9.0,14.0,42,0.00,,,0.00,970.0,meteohub,2013-05-06 17:17:00,
2013-05-06 11:22:00,60.3,37.8,29.63,SSW,200,4.0,13.0,43,0.00,,,0.00,751.0,meteohub,2013-05-06 17:22:00,
2013-05-06 11:27:00,60.6,36.9,29.63,SSW,209,7.0,12.0,41,0.00,,,0.00,452.0,meteohub,2013-05-06 17:27:00,
2013-05-06 11:32:00,59.5,36.5,29.62,South,188,9.0,14.0,42,0.00,,,0.00,311.0,meteohub,2013-05-06 17:32:00,
2013-05-06 11:37:00,58.8,37.0,29.63,SE,142,3.0,14.0,44,0.00,,,0.00,206.0,meteohub,2013-05-06 17:37:00,
2013-05-06 11:42:00,58.8,36.3,29.62,SE,146,6.0,13.0,43,0.00,,,0.00,197.0,meteohub,2013-05-06 17:42:00,
2013-05-06 11:47:00,58.6,36.1,29.62,SSW,212,6.0,13.0,43,0.00,,,0.00,295.0,meteohub,2013-05-06 17:47:00,
2013-05-06 11:52:00,58.8,37.6,29.62,WSW,240,6.0,18.0,45,0.00,,,0.00,292.0,meteohub,2013-05-06 17:52:00,
2013-05-06 11:57:00,59.7,38.3,29.62,SSW,195,10.0,18.0,45,0.00,,,0.00,1141.0,meteohub,2013-05-06 17:57:00,
2013-05-06 12:02:00,61.3,37.4,29.62,SSW,200,7.0,18.0,41,0.00,,,0.00,1072.0,meteohub,2013-05-06 18:02:00,
2013-05-06 12:07:00,61.3,36.1,29.62,SSW,201,10.0,20.0,39,0.00,,,0.00,408.0,meteohub,2013-05-06 18:07:00,
2013-05-06 12:12:00,61.0,37.8,29.62,WSW,238,14.0,20.0,42,0.00,,,0.00,406.0,meteohub,2013-05-06 18:12:00,
2013-05-06 12:17:00,61.3,37.4,29.62,SSW,199,12.0,22.0,41,0.00,,,0.00,1151.0,meteohub,2013-05-06 18:17:00,
2013-05-06 12:22:00,62.2,37.0,29.62,SW,231,13.0,22.0,39,0.00,,,0.00,1181.0,meteohub,2013-05-06 18:22:00,
2013-05-06 12:27:00,62.2,38.3,29.62,West,261,13.0,22.0,41,0.00,,,0.00,1030.0,meteohub,2013-05-06 18:27:00,
2013-05-06 12:32:00,61.5,37.6,29.62,WSW,248,13.0,20.0,41,0.00,,,0.00,828.0,meteohub,2013-05-06 18:32:00,
2013-05-06 12:37:00,61.3,38.7,29.62,WSW,252,8.0,20.0,43,0.00,,,0.00,527.0,meteohub,2013-05-06 18:37:00,
2013-05-06 12:42:00,61.3,38.1,29.62,WNW,284,9.0,21.0,42,0.00,,,0.00,591.0,meteohub,2013-05-06 18:42:00,
2013-05-06 12:47:00,61.0,38.3,29.62,SW,234,8.0,21.0,43,0.00,,,0.00,278.0,meteohub,2013-05-06 18:47:00,
2013-05-06 12:52:00,61.2,37.9,29.62,SSW,205,10.0,21.0,42,0.00,,,0.00,1085.0,meteohub,2013-05-06 18:52:00,
2013-05-06 12:57:00,61.5,38.3,29.61,West,259,9.0,20.0,42,0.00,,,0.00,1093.0,meteohub,2013-05-06 18:57:00,
2013-05-06 13:02:00,61.7,37.2,29.62,WNW,283,8.0,22.0,40,0.00,,,0.00,1150.0,meteohub,2013-05-06 19:02:00,
2013-05-06 13:07:00,61.3,36.9,29.62,SSW,202,6.0,22.0,40,0.00,,,0.00,450.0,meteohub,2013-05-06 19:07:00,
2013-05-06 13:12:00,61.9,36.7,29.62,SSW,208,14.0,22.0,39,0.00,,,0.00,1310.0,meteohub,2013-05-06 19:12:00,
2013-05-06 13:17:00,62.2,37.0,29.62,WSW,237,9.0,21.0,39,0.00,,,0.00,1004.0,meteohub,2013-05-06 19:17:00,
2013-05-06 13:22:00,62.2,37.0,29.61,West,264,11.0,20.0,39,0.00,,,0.00,1116.0,meteohub,2013-05-06 19:22:00,
2013-05-06 13:27:00,62.8,36.1,29.62,West,267,11.0,19.0,37,0.00,,,0.00,1086.0,meteohub,2013-05-06 19:27:00,
2013-05-06 13:32:00,63.0,35.6,29.61,South,186,5.0,18.0,36,0.00,,,0.00,1086.0,meteohub,2013-05-06 19:32:00,
2013-05-06 13:37:00,62.8,36.1,29.61,WSW,246,9.0,21.0,37,0.00,,,0.00,1021.0,meteohub,2013-05-06 19:37:00,
2013-05-06 13:42:00,63.0,36.3,29.61,West,270,6.0,21.0,37,0.00,,,0.00,1032.0,meteohub,2013-05-06 19:42:00,
2013-05-06 13:47:00,63.0,35.6,29.61,WSW,237,2.0,21.0,36,0.00,,,0.00,1150.0,meteohub,2013-05-06 19:47:00,
2013-05-06 13:52:00,63.1,35.1,29.61,SW,232,7.0,15.0,35,0.00,,,0.00,348.0,meteohub,2013-05-06 19:52:00,
2013-05-06 13:57:00,62.8,35.4,29.61,WSW,246,5.0,14.0,36,0.00,,,0.00,346.0,meteohub,2013-05-06 19:57:00,
2013-05-06 14:02:00,62.4,35.1,29.61,SW,234,4.0,19.0,36,0.00,,,0.00,338.0,meteohub,2013-05-06 20:02:00,
2013-05-06 14:07:00,63.3,34.5,29.61,WSW,238,13.0,19.0,34,0.00,,,0.00,882.0,meteohub,2013-05-06 20:07:00,
2013-05-06 14:12:00,64.0,35.1,29.61,West,266,9.0,19.0,34,0.00,,,0.00,401.0,meteohub,2013-05-06 20:12:00,
2013-05-06 14:17:00,63.1,34.3,29.60,West,263,6.0,16.0,34,0.00,,,0.00,420.0,meteohub,2013-05-06 20:17:00,
2013-05-06 14:22:00,63.3,35.2,29.61,WSW,238,8.0,16.0,35,0.00,,,0.00,322.0,meteohub,2013-05-06 20:22:00,
2013-05-06 14:27:00,62.8,35.4,29.60,SSW,192,11.0,18.0,36,0.00,,,0.00,308.0,meteohub,2013-05-06 20:27:00,
2013-05-06 14:32:00,63.0,35.6,29.60,WSW,257,4.0,18.0,36,0.00,,,0.00,322.0,meteohub,2013-05-06 20:32:00,
2013-05-06 14:37:00,63.9,34.2,29.60,SW,234,10.0,18.0,33,0.00,,,0.00,519.0,meteohub,2013-05-06 20:37:00,
2013-05-06 14:42:00,64.9,34.3,29.60,WSW,238,6.0,13.0,32,0.00,,,0.00,1130.0,meteohub,2013-05-06 20:42:00,
2013-05-06 14:47:00,64.2,32.9,29.60,West,271,10.0,17.0,31,0.00,,,0.00,278.0,meteohub,2013-05-06 20:47:00,
2013-05-06 14:52:00,65.1,32.9,29.60,SW,216,10.0,17.0,30,0.00,,,0.00,990.0,meteohub,2013-05-06 20:52:00,
2013-05-06 14:57:00,65.1,32.9,29.60,WNW,285,6.0,17.0,30,0.00,,,0.00,258.0,meteohub,2013-05-06 20:57:00,
2013-05-06 15:02:00,65.3,33.1,29.60,WSW,244,15.0,17.0,30,0.00,,,0.00,341.0,meteohub,2013-05-06 21:02:00,
2013-05-06 15:07:00,64.2,32.9,29.60,WSW,254,7.0,18.0,31,0.00,,,0.00,292.0,meteohub,2013-05-06 21:07:00,
2013-05-06 15:12:00,64.4,34.0,29.59,SW,219,5.0,18.0,32,0.00,,,0.00,1085.0,meteohub,2013-05-06 21:12:00,
2013-05-06 15:17:00,65.7,33.4,29.59,WSW,257,8.0,18.0,30,0.00,,,0.00,877.0,meteohub,2013-05-06 21:17:00,
2013-05-06 15:22:00,65.1,32.0,29.59,SW,233,8.0,15.0,29,0.00,,,0.00,290.0,meteohub,2013-05-06 21:22:00,
2013-05-06 15:27:00,65.7,33.4,29.59,WSW,240,12.0,18.0,30,0.00,,,0.00,935.0,meteohub,2013-05-06 21:27:00,
2013-05-06 15:32:00,66.4,32.4,29.59,SW,227,13.0,18.0,28,0.00,,,0.00,831.0,meteohub,2013-05-06 21:32:00,
2013-05-06 15:37:00,66.6,32.4,29.59,SW,219,8.0,17.0,28,0.00,,,0.00,789.0,meteohub,2013-05-06 21:37:00,
2013-05-06 15:42:00,66.4,32.4,29.58,SW,227,8.0,16.0,28,0.00,,,0.00,784.0,meteohub,2013-05-06 21:42:00,
2013-05-06 15:47:00,66.7,29.8,29.58,WSW,246,7.0,16.0,25,0.00,,,0.00,195.0,meteohub,2013-05-06 21:47:00,
2013-05-06 15:52:00,66.7,28.8,29.58,WNW,288,12.0,16.0,24,0.00,,,0.00,209.0,meteohub,2013-05-06 21:52:00,
2013-05-06 15:57:00,65.8,27.0,29.58,West,273,8.0,17.0,23,0.00,,,0.00,236.0,meteohub,2013-05-06 21:57:00,
2013-05-06 16:02:00,66.7,28.8,29.58,SW,235,5.0,20.0,24,0.00,,,0.00,846.0,meteohub,2013-05-06 22:02:00,
2013-05-06 16:07:00,67.5,27.3,29.58,West,267,9.0,20.0,22,0.00,,,0.00,854.0,meteohub,2013-05-06 22:07:00,
2013-05-06 16:12:00,68.2,28.9,29.58,SW,223,22.0,22.0,23,0.00,,,0.00,833.0,meteohub,2013-05-06 22:12:00,
2013-05-06 16:17:00,68.4,29.1,29.58,SW,234,10.0,22.0,23,0.00,,,0.00,782.0,meteohub,2013-05-06 22:17:00,
2013-05-06 16:22:00,67.6,28.6,29.58,West,261,5.0,22.0,23,0.00,,,0.00,721.0,meteohub,2013-05-06 22:22:00,
2013-05-06 16:27:00,67.5,28.4,29.58,WSW,257,8.0,22.0,23,0.00,,,0.00,246.0,meteohub,2013-05-06 22:27:00,
2013-05-06 16:32:00,67.3,29.3,29.58,WSW,248,9.0,15.0,24,0.00,,,0.00,246.0,meteohub,2013-05-06 22:32:00,
2013-05-06 16:37:00,66.9,28.9,29.58,WSW,240,4.0,16.0,24,0.00,,,0.00,345.0,meteohub,2013-05-06 22:37:00,
2013-05-06 16:42:00,67.3,29.3,29.58,South,187,2.0,16.0,24,0.00,,,0.00,768.0,meteohub,2013-05-06 22:42:00,
2013-05-06 16:47:00,67.8,28.6,29.57,WSW,251,7.0,16.0,23,0.00,,,0.00,262.0,meteohub,2013-05-06 22:47:00,
2013-05-06 16:52:00,67.6,28.6,29.58,West,278,4.0,14.0,23,0.00,,,0.00,271.0,meteohub,2013-05-06 22:52:00,
2013-05-06 16:57:00,68.5,28.2,29.57,WSW,246,8.0,15.0,22,0.00,,,0.00,232.0,meteohub,2013-05-06 22:57:00,
2013-05-06 17:02:00,68.0,26.6,29.57,West,281,9.0,17.0,21,0.00,,,0.00,220.0,meteohub,2013-05-06 23:02:00,
2013-05-06 17:07:00,68.2,26.8,29.57,WNW,284,8.0,17.0,21,0.00,,,0.00,301.0,meteohub,2013-05-06 23:07:00,
2013-05-06 17:12:00,68.2,26.8,29.57,WSW,247,3.0,17.0,21,0.00,,,0.00,192.0,meteohub,2013-05-06 23:12:00,
2013-05-06 17:17:00,67.8,26.4,29.57,West,266,7.0,16.0,21,0.00,,,0.00,163.0,meteohub,2013-05-06 23:17:00,
2013-05-06 17:22:00,67.6,27.5,29.57,West,268,4.0,14.0,22,0.00,,,0.00,165.0,meteohub,2013-05-06 23:22:00,
2013-05-06 17:27:00,67.6,27.5,29.57,SSW,210,6.0,12.0,22,0.00,,,0.00,513.0,meteohub,2013-05-06 23:27:00,
2013-05-06 17:32:00,68.4,27.0,29.57,SSW,204,7.0,11.0,21,0.00,,,0.00,527.0,meteohub,2013-05-06 23:32:00,
2013-05-06 17:37:00,69.4,26.6,29.57,SW,223,5.0,12.0,20,0.00,,,0.00,482.0,meteohub,2013-05-06 23:37:00,
2013-05-06 17:42:00,69.6,25.5,29.57,West,267,6.0,14.0,19,0.00,,,0.00,329.0,meteohub,2013-05-06 23:42:00,
2013-05-06 17:47:00,69.6,25.5,29.57,WNW,293,4.0,17.0,19,0.00,,,0.00,415.0,meteohub,2013-05-06 23:47:00,
2013-05-06 17:52:00,69.1,23.7,29.57,West,266,9.0,17.0,18,0.00,,,0.00,118.0,meteohub,2013-05-06 23:52:00,
2013-05-06 17:57:00,68.2,24.3,29.57,West,277,12.0,17.0,19,0.00,,,0.00,211.0,meteohub,2013-05-06 23:57:00,
2013-05-06 18:02:00,68.2,25.5,29.57,West,268,10.0,15.0,20,0.00,,,0.00,381.0,meteohub,2013-05-07 00:02:00,
2013-05-06 18:07:00,68.4,25.7,29.57,WNW,289,7.0,16.0,20,0.00,,,0.00,128.0,meteohub,2013-05-07 00:07:00,
2013-05-06 18:12:00,68.2,25.5,29.57,West,270,5.0,16.0,20,0.00,,,0.00,118.0,meteohub,2013-05-07 00:12:00,
2013-05-06 18:17:00,67.8,25.3,29.57,WNW,292,8.0,14.0,20,0.00,,,0.00,137.0,meteohub,2013-05-07 00:17:00,
2013-05-06 18:22:00,67.8,25.3,29.57,SW,223,4.0,14.0,20,0.00,,,0.00,313.0,meteohub,2013-05-07 00:22:00,
2013-05-06 18:27:00,68.7,24.8,29.57,NNW,331,8.0,14.0,19,0.00,,,0.00,190.0,meteohub,2013-05-07 00:27:00,
2013-05-06 18:32:00,68.4,25.7,29.57,West,272,3.0,14.0,20,0.00,,,0.00,153.0,meteohub,2013-05-07 00:32:00,
2013-05-06 18:37:00,68.0,25.3,29.57,WNW,290,8.0,14.0,20,0.00,,,0.00,174.0,meteohub,2013-05-07 00:37:00,
2013-05-06 18:42:00,68.2,25.5,29.57,West,281,4.0,14.0,20,0.00,,,0.00,120.0,meteohub,2013-05-07 00:42:00,
2013-05-06 18:47:00,68.4,24.4,29.57,NW,317,4.0,13.0,19,0.00,,,0.00,171.0,meteohub,2013-05-07 00:47:00,
2013-05-06 18:52:00,68.4,25.7,29.57,West,273,3.0,13.0,20,0.00,,,0.00,105.0,meteohub,2013-05-07 00:52:00,
2013-05-06 18:57:00,68.4,25.7,29.57,NW,309,3.0,12.0,20,0.00,,,0.00,114.0,meteohub,2013-05-07 00:57:00,
2013-05-06 19:02:00,68.2,25.5,29.57,WNW,287,4.0,12.0,20,0.00,,,0.00,113.0,meteohub,2013-05-07 01:02:00,
2013-05-06 19:07:00,67.8,25.3,29.57,WNW,282,2.0,10.0,20,0.00,,,0.00,60.0,meteohub,2013-05-07 01:07:00,
2013-05-06 19:12:00,67.6,25.2,29.57,WNW,290,2.0,10.0,20,0.00,,,0.00,76.0,meteohub,2013-05-07 01:12:00,
2013-05-06 19:17:00,67.8,24.1,29.57,West,275,7.0,9.0,19,0.00,,,0.00,56.0,meteohub,2013-05-07 01:17:00,
2013-05-06 19:22:00,67.6,25.2,29.57,North,5,5.0,15.0,20,0.00,,,0.00,40.0,meteohub,2013-05-07 01:22:00,
2013-05-06 19:27:00,67.5,25.0,29.57,WNW,292,4.0,15.0,20,0.00,,,0.00,30.0,meteohub,2013-05-07 01:27:00,
2013-05-06 19:32:00,66.9,25.7,29.58,West,275,2.0,15.0,21,0.00,,,0.00,18.0,meteohub,2013-05-07 01:32:00,
2013-05-06 19:37:00,66.7,25.5,29.58,West,266,0.0,9.0,21,0.00,,,0.00,12.0,meteohub,2013-05-07 01:37:00,
2013-05-06 19:42:00,66.7,25.5,29.58,NW,319,2.0,6.0,21,0.00,,,0.00,7.0,meteohub,2013-05-07 01:42:00,
2013-05-06 19:47:00,66.6,25.3,29.58,NW,322,2.0,5.0,21,0.00,,,0.00,0.0,meteohub,2013-05-07 01:47:00,
2013-05-06 19:52:00,66.4,25.3,29.58,NNW,338,2.0,6.0,21,0.00,,,0.00,0.0,meteohub,2013-05-07 01:52:00,
2013-05-06 19:57:00,66.4,25.3,29.58,NW,318,2.0,6.0,21,0.00,,,0.00,0.0,meteohub,2013-05-07 01:57:00,
2013-05-06 20:02:00,66.4,25.3,29.59,NW,316,4.0,6.0,21,0.00,,,0.00,0.0,meteohub,2013-05-07 02:02:00,
2013-05-06 20:07:00,66.2,25.2,29.59,NW,315,2.0,6.0,21,0.00,,,0.00,0.0,meteohub,2013-05-07 02:07:00,
2013-05-06 20:12:00,66.0,25.0,29.59,NW,316,0.0,5.0,21,0.00,,,0.00,0.0,meteohub,2013-05-07 02:12:00,
2013-05-06 20:17:00,65.8,25.9,29.59,NW,315,0.0,4.0,22,0.00,,,0.00,0.0,meteohub,2013-05-07 02:17:00,
2013-05-06 20:22:00,65.8,25.9,29.59,NW,315,1.0,2.0,22,0.00,,,0.00,0.0,meteohub,2013-05-07 02:22:00,
2013-05-06 20:27:00,65.7,25.7,29.59,NW,309,1.0,3.0,22,0.00,,,0.00,0.0,meteohub,2013-05-07 02:27:00,
2013-05-06 20:32:00,65.7,25.7,29.59,NW,309,3.0,3.0,22,0.00,,,0.00,0.0,meteohub,2013-05-07 02:32:00,
2013-05-06 20:37:00,65.7,25.7,29.59,WNW,302,2.0,4.0,22,0.00,,,0.00,0.0,meteohub,2013-05-07 02:37:00,
2013-05-06 20:42:00,65.5,26.8,29.60,NNW,334,2.0,4.0,23,0.00,,,0.00,0.0,meteohub,2013-05-07 02:42:00,
2013-05-06 20:47:00,65.1,27.5,29.60,NNW,334,0.0,7.0,24,0.00,,,0.00,0.0,meteohub,2013-05-07 02:47:00,
2013-05-06 20:52:00,64.9,26.2,29.60,NE,51,0.0,7.0,23,0.00,,,0.00,0.0,meteohub,2013-05-07 02:52:00,
2013-05-06 20:57:00,65.1,26.4,29.60,NE,51,0.0,7.0,23,0.00,,,0.00,0.0,meteohub,2013-05-07 02:57:00,
2013-05-06 21:02:00,65.1,26.4,29.60,NE,51,0.0,5.0,23,0.00,,,0.00,0.0,meteohub,2013-05-07 03:02:00,
2013-05-06 21:07:00,65.3,26.6,29.60,NE,51,1.0,5.0,23,0.00,,,0.00,0.0,meteohub,2013-05-07 03:07:00,
2013-05-06 21:12:00,65.3,26.6,29.60,NE,51,0.0,2.0,23,0.00,,,0.00,0.0,meteohub,2013-05-07 03:12:00,
2013-05-06 21:17:00,64.9,27.3,29.61,NE,51,0.0,3.0,24,0.00,,,0.00,0.0,meteohub,2013-05-07 03:17:00,
2013-05-06 21:22:00,64.8,27.1,29.61,NE,51,0.0,3.0,24,0.00,,,0.00,0.0,meteohub,2013-05-07 03:22:00,
2013-05-06 21:27:00,64.8,27.1,29.61,NE,37,2.0,3.0,24,0.00,,,0.00,0.0,meteohub,2013-05-07 03:27:00,
2013-05-06 21:32:00,64.9,28.2,29.61,NE,37,2.0,4.0,25,0.00,,,0.00,0.0,meteohub,2013-05-07 03:32:00,
2013-05-06 21:37:00,64.8,27.1,29.62,NNE,26,1.0,4.0,24,0.00,,,0.00,0.0,meteohub,2013-05-07 03:37:00,
2013-05-06 21:42:00,64.9,27.3,29.62,NNE,24,0.0,4.0,24,0.00,,,0.00,0.0,meteohub,2013-05-07 03:42:00,
2013-05-06 21:47:00,64.9,28.2,29.62,NNE,24,0.0,4.0,25,0.00,,,0.00,0.0,meteohub,2013-05-07 03:47:00,
2013-05-06 21:52:00,64.8,27.1,29.62,NNE,24,0.0,4.0,24,0.00,,,0.00,0.0,meteohub,2013-05-07 03:52:00,
2013-05-06 21:57:00,64.4,27.9,29.62,NNE,24,0.0,3.0,25,0.00,,,0.00,0.0,meteohub,2013-05-07 03:57:00,
2013-05-06 22:02:00,64.2,27.7,29.62,NNE,24,0.0,1.0,25,0.00,,,0.00,0.0,meteohub,2013-05-07 04:02:00,
2013-05-06 22:07:00,64.2,27.7,29.62,NNE,24,0.0,0.0,25,0.00,,,0.00,0.0,meteohub,2013-05-07 04:07:00,
2013-05-06 22:12:00,63.7,28.2,29.62,NNE,24,0.0,0.0,26,0.00,,,0.00,0.0,meteohub,2013-05-07 04:12:00,
2013-05-06 22:17:00,63.7,28.2,29.62,NNE,24,0.0,0.0,26,0.00,,,0.00,0.0,meteohub,2013-05-07 04:17:00,
2013-05-06 22:22:00,63.7,28.2,29.62,NNE,24,1.0,0.0,26,0.00,,,0.00,0.0,meteohub,2013-05-07 04:22:00,
2013-05-06 22:27:00,63.7,28.2,29.63,NNE,24,2.0,2.0,26,0.00,,,0.00,0.0,meteohub,2013-05-07 04:27:00,
2013-05-06 22:32:00,63.7,28.2,29.63,NNE,18,5.0,5.0,26,0.00,,,0.00,0.0,meteohub,2013-05-07 04:32:00,
2013-05-06 22:37:00,63.5,28.0,29.63,NW,320,2.0,5.0,26,0.00,,,0.00,0.0,meteohub,2013-05-07 04:37:00,
2013-05-06 22:42:00,63.1,28.6,29.63,NNW,347,4.0,5.0,27,0.00,,,0.00,0.0,meteohub,2013-05-07 04:42:00,
2013-05-06 22:47:00,63.0,28.4,29.63,North,5,1.0,7.0,27,0.00,,,0.00,0.0,meteohub,2013-05-07 04:47:00,
2013-05-06 22:52:00,62.4,28.9,29.63,North,5,2.0,7.0,28,0.00,,,0.00,0.0,meteohub,2013-05-07 04:52:00,
2013-05-06 22:57:00,62.2,28.8,29.63,North,5,1.0,7.0,28,0.00,,,0.00,0.0,meteohub,2013-05-07 04:57:00,
2013-05-06 23:02:00,62.2,28.8,29.64,North,5,1.0,4.0,28,0.00,,,0.00,0.0,meteohub,2013-05-07 05:02:00,
2013-05-06 23:07:00,62.2,28.8,29.64,North,5,3.0,4.0,28,0.00,,,0.00,0.0,meteohub,2013-05-07 05:07:00,
2013-05-06 23:12:00,62.1,30.2,29.64,North,9,0.0,4.0,30,0.00,,,0.00,0.0,meteohub,2013-05-07 05:12:00,
2013-05-06 23:17:00,61.9,30.0,29.64,North,9,0.0,4.0,30,0.00,,,0.00,0.0,meteohub,2013-05-07 05:17:00,
2013-05-06 23:22:00,61.9,30.9,29.64,North,9,0.0,4.0,31,0.00,,,0.00,0.0,meteohub,2013-05-07 05:22:00,
2013-05-06 23:27:00,61.7,30.0,29.64,North,9,0.0,2.0,30,0.00,,,0.00,0.0,meteohub,2013-05-07 05:27:00,
2013-05-06 23:32:00,61.7,30.7,29.64,North,9,0.0,0.0,31,0.00,,,0.00,0.0,meteohub,2013-05-07 05:32:00,
2013-05-06 23:37:00,61.7,30.7,29.64,North,9,0.0,0.0,31,0.00,,,0.00,0.0,meteohub,2013-05-07 05:37:00,
2013-05-06 23:42:00,61.9,30.9,29.64,North,9,0.0,0.0,31,0.00,,,0.00,0.0,meteohub,2013-05-07 05:42:00,
2013-05-06 23:47:00,61.9,31.6,29.65,North,9,1.0,0.0,32,0.00,,,0.00,0.0,meteohub,2013-05-07 05:47:00,
2013-05-06 23:52:00,61.7,31.5,29.65,North,9,1.0,1.0,32,0.00,,,0.00,0.0,meteohub,2013-05-07 05:52:00,
2013-05-06 23:57:00,61.5,31.5,29.65,North,9,0.0,1.0,32,0.00,,,0.00,0.0,meteohub,2013-05-07 05:57:00,